Find USA 60

NORAD ID: 20682 Int'l Des: 1990-050 Owner: NRO/NRL Country: US operational
LEO

Live-Position

3D-Globus wird geladen...

Über USA 60

Beschreibung wird geladen...

Nächste Überflüge

Passes for default location (London). Set your location on the main map for personalized predictions.

Höhenverlauf

Loading altitude history...

Zweizeiliger Elementsatz

1 20682U 90050B 26121.82218259 .00009635 00000-0 62521-3 0 9993
2 20682 63.2964 333.2174 0877572 82.0455 287.9135 13.65355795 97520
Epoch: 1. Mai 2026 • Age: 6 hours

Aktueller Status

Höhe 1643.2 km
Geschwindigkeit 6.75 km/s
Subsatellitenpunkt -53.01°S, 57.76°W
Startdatum 8. Juni 1990
Alter 35.8 years
Typ military

Technische Details

Klassifizierung Payload
Masse 400.00 kg
Trockenmasse 400.00 kg
Gesamtmasse 400.00 kg
Länge 1.00 m
Durchmesser 1.00 m
Spannweite 10.00 m
Form Box + Ant
Hersteller NRL
Bus-Typ NOSS B SSU
Phasenstatus In Orbit
Besitzer/Staat NRO/NRL/US

Most Searched